Flag for Cuba Weather past 2 weeks in Santiago de Cuba, Cuba

Now
77 °F

Passing clouds.


Feels Like: 79 °F
Forecast: 76 / 89 °F
Wind: 3 mph from North

Location: Santiago De Cuba - Oriente

Current Time: May 22, 2015 at 11:48:07 PM

Latest Report: May 22, 2015 at 10:51 PM


Visibility: 6 mi

Pressure: 30.09 "Hg

Humidity: 79%

Dew point: 70 °F

Location of Santiago de CubaLocation

Historic Weather in Santiago de Cuba — Graph

°F

Santiago de Cuba temperature yesterday

Maximum temperature yesterday: 88 °F (at 12:50 PM)
Minimum temperature yesterday: 75 °F (at 12:51 AM)
Average temperature yesterday: 81 °F

Past Weeks' High & Low Weather Summary

 TemperatureHumidityPressure
High97 °F (May 13, 11:50 AM)94% (May 14, 8:50 PM)30.09 "Hg (May 14, 8:50 PM)
Low72 °F (May 11, 1:52 AM)38% (May 9, 5:51 PM)29.92 "Hg (May 20, 4:51 PM)
Average80 °F68%30.02 "Hg
* Reported May 7 9:50 PM — May 22 9:50 PM, Santiago de Cuba, Weather by CustomWeather, © 2015

Note: Actual official high and low records may vary slightly from our data, if they occured in-between our weather recording intervals... More about our weather records

Advertising

Santiago de Cuba weather history for previous 24 hours

 ConditionsComfort  
Time TempWeatherWind HumidityBarometerVisibility
9:50 PM
Fri, May 22
77 °FPassing clouds.3 mph74%30.09 "Hg6 mi
8:50 PM77 °FPassing clouds.3 mph79%30.09 "Hg6 mi
7:50 PM79 °FScattered clouds.3 mph74%30.07 "Hg6 mi
6:51 PM81 °FScattered clouds.3 mph66%30.07 "Hg6 mi
5:51 PM84 °FPartly sunny.3 mph66%30.04 "Hg6 mi
4:51 PM86 °FScattered clouds.3 mph59%30.04 "HgN/A
3:50 PM84 °FScattered clouds.3 mph66%30.04 "HgN/A
2:50 PM86 °FScattered clouds.3 mph62%30.04 "HgN/A
1:51 PM84 °FScattered clouds.3 mph66%30.07 "HgN/A
12:50 PM84 °FScattered clouds.3 mph66%30.07 "Hg6 mi
11:51 AM84 °FScattered clouds.3 mph66%30.09 "Hg6 mi
10:50 AM84 °FScattered clouds.3 mph66%30.09 "Hg6 mi
9:50 AM82 °FScattered clouds.3 mph70%30.09 "Hg6 mi
8:52 AM82 °FPassing clouds.3 mph70%30.07 "Hg6 mi
7:50 AM79 °FPassing clouds.3 mph79%30.07 "Hg6 mi
6:50 AM75 °FPassing clouds.5 mph83%30.04 "Hg6 mi
5:50 AM75 °FPassing clouds.5 mph83%30.01 "Hg6 mi
4:54 AM77 °FPassing clouds.1 mph79%30.01 "Hg6 mi
3:51 AM75 °FPassing clouds.3 mph83%30.01 "Hg6 mi
2:52 AM77 °FPassing clouds.7 mph79%30.01 "Hg6 mi
2:13 AM77 °FPassing clouds.13 mph83%30.04 "Hg6 mi
12:51 AM77 °FPassing clouds.6 mph69%30.04 "Hg6 mi
11:50 PM
Thu, May 21
77 °FPassing clouds.5 mph69%30.04 "Hg6 mi
Weather by CustomWeather, © 2015

See weather overviewHow to use our weather pages